Showing default

FORMOSAT7-4/COSMIC2-4, 44350

Orbit data source: Space-Track

FORMOSAT7-4/COSMIC2-4, 44350 is a payload satellite owned by NSPO (TW) in LEO that was launched on Tue, 25 Jun 2019 UTC via an FALCON HEAVY launch vehicle from the Air Force Eastern Test Range (AFETR). Payload-class satellites include a variety of spacecraft equipped with specific instruments for various scientific and technological missions. These include communications satellites like Starlink; space stations such as the ISS; scientific satellites like the Hubble; Earth observation satellites from companies like Planet Labs, Umbra, and HawkEye 360; GPS; miniature CubeSats for education and research; and military/defense satellites.

Not visible in the next 10 days
Identifier
44350, 2019-036M
Orbit
LEO
Last TLE update
10 hours ago
Origin
Manufacturer
SSTL (Astrium)
Mission
Operational Civil Weather
Bus & Motor
SSTL-100, Unknown motor
Mass
278 kg wet, 278 kg dry
Launch date (UTC)
2019-06-25 (6 years ago)
Launch vehicle
FALCON HEAVY
Launch site
Air Force Eastern Test Range (AFETR)
Object type
Payload
Rocket body
Debris
Shape & HBR
Box + 1 Pan, 3 m
Radar Cross Section
2.189 m², Large (>1 m²)

Expand to show TLE details & history

TLE from 10 hours ago
0 FORMOSAT7-4/COSMIC2-4
1 44350U 19036M   25186.60392897  .00003491  00000-0  21295-3 0  9990
2 44350  23.9990 275.1228 0001221 105.4005 254.6633 15.05704566332138
Epoch: 2025-07-05T14:29Z
TLE epoch observation values (Epoch: 2025-07-05T14:29:39.463Z)
Latitude
0.00001°
Longitude
133.8688°
Altitude
547.448 km
Speed
7.591 km/s
True Right ascension
18h 20m 29s
True Declination
0° 00' 00"
Sunlit
Object was in full shadow at epoch
Visualization orbit readout
Latitude
4.77407°
Longitude
141.88876°
Altitude
546.847 km
Speed
7.592 km/s
Apparent Right ascension
20h 56m 15s
Apparent Declination
-20° 36' 51"
Sunlit
Object is in full shadow
Visualization observer readout
Local Sidereal Time
12:01:47
Azimuth
77.98° E
Elevation
-46.148°
Doppler factor
1
Orbital elements
Apogee altitude
554.977 km
Perigee altitude
553.284 km
Semi-major axis
6,932.268 km
Eccentricity
0.00012
Inclination
23.999°
RAAN
275.1228°
Arg. of periapsis
105.4005°
True anomaly
Unknown
Mean anomaly
254.6633°
Eccentric anomaly
Unknown
Mean motion
3.76037 °/min
Orbital period
95.74 mins
BSTAR
0.00021295
Loading maneuver chart data...
Loading SW <> Apogee altitude chart data...
Loading historical data...
Loading historical data...
Loading historical data...
Loading historical data...
Loading historical data...
Loading historical data...
Loading historical data...

FORMOSAT7-4/COSMIC2-4 Visibility

Observer location: undefined°, undefined°

FORMOSAT7-4/COSMIC2-4 is likely not visible in the next few days
Span
Click to sort rows by Start time (UTC) header in descending order
Start Az.
Max El. time (UTC)
Max El. Az.
Max El.
End time (UTC)
End Az.
|